User: anonymous   Login
Location: Unspecified
(0.0000°N, 0.0000°E)
Time: 05:37:57
(UTC+02:00)
Language:

Timation 2 Rocket - Orbit

View from above orbital plane
View from above orbital plane
View from above satellite
View from above satellite

Ground track
Ground track

The orbit data is extracted from the following two-line orbital elements,

1 04159U 69082AB  15182.17410374 -.00000001  00000-0  51726-4 0  9995
2 04159 069.9606 192.4730 0118047 262.3278 096.4396 13.72307229289703
Epoch (UTC): 01 July 2015 04:10:42
Eccentricity: 0.0118047
inclination: 69.9606°
perigee height: 904 km
apogee height: 1078 km
right ascension of ascending node: 192.4730°
argument of perigee: 262.3278°
revolutions per day: 13.72307229
mean anomaly at epoch: 96.4396°
orbit number at epoch: 28970

The dashed part of the orbit path shows where the satellite is in the earth's shadow,  

DLR